Grove, OK

4:23 PM CST on February 07, 2016 (GMT -0600)
Grove Municipal

Weather History for KGMJ - November, 2012

Change the Weather History Date:

Wednesday, November 7, 2012

  Actual Average (KJLN) Record (KJLN)
Temperature  
Mean Temperature 48 °F 52 °F  
Max Temperature 60 °F 63 °F 83 °F (2005)
Min Temperature 35 °F 42 °F 14 °F (1991)
Degree Days  
Heating Degree Days 18 13  
Month to date heating degree days 84  
Since 1 July heating degree days 336  
Cooling Degree Days 0 0  
Month to date cooling degree days 5  
Year to date cooling degree days 1696  
Moisture  
Dew Point 33 °F    
Average Humidity 58    
Maximum Humidity 87    
Minimum Humidity 31    
Precipitation  
Precipitation 0.00 in 0.13 in 0.85 in (2011)
Month to date precipitation 0.92  
Year to date precipitation 40.87  
Sea Level Pressure  
Sea Level Pressure 30.14 in    
Wind  
Wind Speed 2 mph (NNW)    
Max Wind Speed 12 mph    
Max Gust Speed 16 mph    
Visibility 10 miles    
Events      
T = Trace of Precipitation, MM = Missing Value Source: NWS Daily Summary

Daily Weather History Graph

Daily Weather History Graph

Search for Another Location

Airport or City:

Trip Planner

Search our weather history database for the weather conditions in past years. The results will help you decide how hot, cold, wet, or windy it might be!

Date:

Astronomy

Nov. 07, 2012 Rise Set
Actual Time 6:48 AM CST 5:15 PM CST
Civil Twilight 6:21 AM CST 5:42 PM CST
Nautical Twilight 5:51 AM CST 6:13 PM CST
Astronomical Twilight 5:20 AM CST 6:44 PM CST
Moon No Moon Rise 1:15 PM CST
Length of Visible Light 11h 21m
Length of Day
10h 26m
Last Quarter, 43% of the Moon is Illuminated
Nov 7
Last Quarter
Nov 13
New
Nov 20
First Quarter
Nov 28
Full
Dec 6
Last Quarter

Hourly Weather History & Observations

Time (CST) Temp. Windchill Dew Point Humidity Pressure Visibility Wind Dir Wind Speed Gust Speed Precip Events Conditions
12:15 AM 44.6 °F - 32.0 °F 61% 30.11 in 10.0 mi Calm Calm - N/A   Clear
12:35 AM 44.6 °F - 32.0 °F 61% 30.11 in 10.0 mi Calm Calm - N/A   Clear
12:55 AM 46.4 °F - 32.0 °F 57% 30.10 in 10.0 mi Calm Calm - N/A   Clear
1:15 AM 44.6 °F - 32.0 °F 61% 30.11 in 10.0 mi Calm Calm - N/A   Clear
1:35 AM 44.6 °F 43.1 °F 30.2 °F 57% 30.11 in 10.0 mi NNW 3.5 mph - N/A   Clear
1:55 AM 42.8 °F - 32.0 °F 66% 30.11 in 10.0 mi Calm Calm - N/A   Clear
2:15 AM 42.8 °F - 32.0 °F 66% 30.11 in 10.0 mi Calm Calm - N/A   Clear
2:55 AM 41.0 °F 39.0 °F 32.0 °F 70% 30.11 in 10.0 mi WNW 3.5 mph - N/A   Clear
3:15 AM 41.0 °F 38.0 °F 32.0 °F 70% 30.12 in 10.0 mi WNW 4.6 mph - N/A   Clear
7:15 AM 35.6 °F - 32.0 °F 87% 30.17 in 10.0 mi Calm Calm - N/A   Clear
7:35 AM 35.6 °F - 32.0 °F 87% 30.18 in 10.0 mi Calm Calm - N/A   Clear
7:55 AM 37.4 °F - 32.0 °F 81% 30.19 in 10.0 mi Calm Calm - N/A   Clear
8:15 AM 42.8 °F - 33.8 °F 70% 30.19 in 10.0 mi Calm Calm - N/A   Clear
8:35 AM 46.4 °F 45.2 °F 33.8 °F 62% 30.19 in 10.0 mi NW 3.5 mph - N/A   Clear
8:55 AM 46.4 °F 45.2 °F 33.8 °F 62% 30.19 in 10.0 mi NNW 3.5 mph - N/A   Clear
9:15 AM 50.0 °F - 33.8 °F 54% 30.20 in 10.0 mi NNW 4.6 mph - N/A   Clear
9:35 AM 51.8 °F - 33.8 °F 50% 30.20 in 10.0 mi Calm Calm - N/A   Clear
9:55 AM 51.8 °F - 33.8 °F 50% 30.20 in 10.0 mi NW 4.6 mph - N/A   Clear
10:15 AM 53.6 °F - 33.8 °F 47% 30.20 in 10.0 mi NW 4.6 mph - N/A   Clear
10:35 AM 53.6 °F - 33.8 °F 47% 30.20 in 10.0 mi NW 5.8 mph - N/A   Clear
10:55 AM 55.4 °F - 35.6 °F 47% 30.20 in 10.0 mi NNW 8.1 mph - N/A   Clear
11:15 AM 55.4 °F - 33.8 °F 44% 30.20 in 10.0 mi NW 6.9 mph - N/A   Clear
11:35 AM 57.2 °F - 33.8 °F 41% 30.19 in 10.0 mi NNW 8.1 mph 16.1 mph N/A   Clear
11:55 AM 59.0 °F - 33.8 °F 39% 30.18 in 10.0 mi NW 10.4 mph 16.1 mph N/A   Clear
12:15 PM 59.0 °F - 33.8 °F 39% 30.17 in 10.0 mi NW 9.2 mph - N/A   Clear
12:35 PM 59.0 °F - 33.8 °F 39% 30.16 in 10.0 mi NNW 9.2 mph - N/A   Clear
12:55 PM 59.0 °F - 33.8 °F 39% 30.15 in 10.0 mi NNW 10.4 mph - N/A   Clear
1:15 PM 59.0 °F - 32.0 °F 36% 30.14 in 10.0 mi North 11.5 mph 16.1 mph N/A   Clear
1:35 PM 60.8 °F - 32.0 °F 34% 30.13 in 10.0 mi NNW 8.1 mph - N/A   Clear
1:55 PM 60.8 °F - 32.0 °F 34% 30.13 in 10.0 mi North 5.8 mph - N/A   Clear
2:15 PM 60.8 °F - 32.0 °F 34% 30.13 in 10.0 mi NNW 4.6 mph - N/A   Clear
2:35 PM 60.8 °F - 32.0 °F 34% 30.13 in 10.0 mi WNW 6.9 mph - N/A   Clear
2:55 PM 60.8 °F - 30.2 °F 31% 30.12 in 10.0 mi North 6.9 mph - N/A   Clear
3:15 PM 60.8 °F - 32.0 °F 34% 30.12 in 10.0 mi NW 3.5 mph - N/A   Clear
3:35 PM 60.8 °F - 32.0 °F 34% 30.12 in 10.0 mi WNW 3.5 mph - N/A   Clear
3:55 PM 60.8 °F - 32.0 °F 34% 30.12 in 10.0 mi North 4.6 mph - N/A   Clear
4:15 PM 59.0 °F - 32.0 °F 36% 30.12 in 10.0 mi North 5.8 mph - N/A   Clear
4:35 PM 59.0 °F - 32.0 °F 36% 30.12 in 10.0 mi North 3.5 mph - N/A   Clear
5:15 PM 55.4 °F - 32.0 °F 41% 30.11 in 10.0 mi Calm Calm - N/A   Clear
5:35 PM 53.6 °F - 32.0 °F 44% 30.11 in 10.0 mi Calm Calm - N/A   Clear
5:55 PM 50.0 °F - 32.0 °F 50% 30.12 in 10.0 mi Calm Calm - N/A   Clear
6:15 PM 50.0 °F - 32.0 °F 50% 30.12 in 10.0 mi Calm Calm - N/A   Clear
6:35 PM 46.4 °F - 32.0 °F 57% 30.13 in 10.0 mi Calm Calm - N/A   Clear
6:55 PM 46.4 °F - 33.8 °F 62% 30.13 in 10.0 mi Calm Calm - N/A   Clear
7:15 PM 44.6 °F - 33.8 °F 66% 30.12 in 10.0 mi Calm Calm - N/A   Clear
7:35 PM 42.8 °F - 32.0 °F 66% 30.13 in 10.0 mi Calm Calm - N/A   Clear
7:55 PM 41.0 °F - 32.0 °F 70% 30.13 in 10.0 mi Calm Calm - N/A   Clear
8:15 PM 41.0 °F - 33.8 °F 76% 30.13 in 10.0 mi Calm Calm - N/A   Clear
8:35 PM 39.2 °F - 33.8 °F 81% 30.13 in 10.0 mi Calm Calm - N/A   Clear
8:55 PM 41.0 °F - 33.8 °F 76% 30.13 in 10.0 mi Calm Calm - N/A   Clear
9:15 PM 39.2 °F - 33.8 °F 81% 30.13 in 10.0 mi Calm Calm - N/A   Clear
9:35 PM 39.2 °F - 33.8 °F 81% 30.13 in 10.0 mi Calm Calm - N/A   Clear
9:55 PM 39.2 °F - 32.0 °F 75% 30.13 in 10.0 mi Calm Calm - N/A   Clear
10:15 PM 39.2 °F - 32.0 °F 75% 30.13 in 10.0 mi Calm Calm - N/A   Clear
10:35 PM 39.2 °F - 33.8 °F 81% 30.13 in 10.0 mi Calm Calm - N/A   Clear
10:55 PM 37.4 °F - 32.0 °F 81% 30.13 in 10.0 mi Calm Calm - N/A   Clear
11:15 PM 39.2 °F - 33.8 °F 81% 30.14 in 10.0 mi Calm Calm - N/A   Clear
11:35 PM 39.2 °F - 33.8 °F 81% 30.14 in 10.0 mi Calm Calm - N/A   Clear
11:55 PM 37.4 °F - 33.8 °F 87% 30.14 in 10.0 mi Calm Calm - N/A   Clear